K5BV Weather Reports


Display with metric or nautical units.
time (UTC)temp
F
wind
direction
speed
MPH
gust
MPH
rain 1hr
in
rain 24hr
in
rain mn
in
humidity
%
barometer
mb
20200809104306 83 83 12.0 18.0 0.00 0.01 0.01 81 1017.1
20200809103305 83 76 10.0 16.0 0.01 0.01 0.01 82 1017.0
20200809101304 83 84 11.0 20.0 0.01 0.01 0.01 82 1016.9
20200809100305 83 84 10.0 17.0 0.01 0.01 0.01 84 1017.0
20200809095306 82 74 10.0 21.0 0.01 0.01 0.01 84 1017.0
20200809094305 83 79 9.0 21.0 0.01 0.01 0.01 86 1017.0
20200809093305 83 65 9.0 16.0 0.00 0.00 0.00 84 1016.9
20200809092306 84 72 10.0 18.0 0.00 0.00 0.00 81 1016.9
20200809091305 84 86 10.0 17.0 0.00 0.00 0.00 81 1016.9
20200809090305 84 86 9.0 17.0 0.00 0.00 0.00 81 1016.9
20200809085306 84 84 10.0 15.0 0.00 0.00 0.00 82 1017.1
20200809084306 84 73 9.0 18.0 0.00 0.00 0.00 81 1017.2
20200809083305 84 100 9.0 16.0 0.00 0.00 0.00 79 1017.3
20200809082307 84 97 10.0 18.0 0.00 0.00 0.00 79 1017.4
20200809081304 84 85 10.0 20.0 0.00 0.00 0.00 79 1017.3
20200809080305 84 83 12.0 20.0 0.00 0.00 0.00 79 1017.3
20200809075306 84 81 10.0 21.0 0.00 0.00 0.00 79 1017.4
20200809074304 84 80 11.0 20.0 0.00 0.00 0.00 79 1017.4
20200809072307 84 77 13.0 21.0 0.00 0.00 0.00 79 1017.3
20200809071317 84 77 12.0 18.0 0.00 0.00 0.00 80 1017.5
20200809070306 84 79 12.0 20.0 0.00 0.00 0.00 80 1017.7
20200809065305 84 70 12.0 18.0 0.00 0.00 0.00 80 1017.5
20200809064304 84 83 13.0 20.0 0.00 0.00 0.00 80 1017.5
20200809063304 84 77 14.0 21.0 0.00 0.00 0.00 79 1017.6
20200809062305 84 79 14.0 21.0 0.00 0.00 0.00 79 1017.8
20200809061306 84 76 14.0 21.0 0.00 0.00 0.00 78 1017.8
20200809060304 85 81 10.0 20.0 0.00 0.00 0.00 79 1017.8
20200809055301 84 79 14.0 18.0 0.00 0.00 0.00 78 1018.0
20200809054301 84 76 11.0 18.0 0.00 0.00 0.00 79 1018.0
20200809053301 84 75 11.0 17.0 0.00 0.00 0.00 79 1018.1
20200809052302 84 77 13.0 22.0 0.00 0.00 0.00 78 1018.1
20200809050301 84 75 12.0 18.0 0.00 0.00 0.00 80 1018.0
20200809045301 84 66 12.0 20.0 0.00 0.00 0.00 79 1018.0
20200809043303 85 80 10.0 22.0 0.00 0.00 0.00 79 1018.0
20200809042303 85 65 13.0 22.0 0.00 0.00 0.00 77 1017.9
20200809041303 85 60 12.0 21.0 0.00 0.00 0.00 77 1017.9
20200809040302 85 67 10.0 18.0 0.00 0.00 0.00 78 1017.9
20200809035303 85 78 12.0 21.0 0.00 0.00 0.00 77 1017.9
20200809034304 85 72 12.0 21.0 0.00 0.00 0.00 77 1017.8
20200809031302 85 72 10.0 16.0 0.00 0.00 0.00 79 1017.5
20200809030302 85 64 10.0 17.0 0.00 0.00 0.00 79 1017.4
20200809024302 85 56 10.0 18.0 0.00 0.00 0.00 80 1017.2
20200809023302 85 68 11.0 16.0 0.00 0.00 0.00 79 1017.2
20200809022302 85 53 12.0 18.0 0.00 0.00 0.00 78 1017.1
20200809021303 85 66 10.0 17.0 0.00 0.00 0.00 77 1017.1
20200809015303 85 73 10.0 16.0 0.00 0.00 0.00 76 1017.0
20200809014304 86 64 7.0 16.0 0.00 0.00 0.00 76 1017.0
20200809013303 86 59 9.0 15.0 0.00 0.00 0.00 73 1016.7
20200809012303 86 51 8.0 13.0 0.00 0.00 0.00 72 1016.7
20200809010303 87 55 7.0 15.0 0.00 0.00 0.00 71 1016.4
20200809005303 87 44 8.0 14.0 0.00 0.00 0.00 70 1016.3
20200809004304 87 58 8.0 13.0 0.00 0.00 0.00 69 1016.3
20200809003303 88 70 7.0 14.0 0.00 0.00 0.00 67 1016.3
20200809001302 89 60 7.0 13.0 0.00 0.00 0.00 65 1016.2
20200809000303 89 46 8.0 16.0 0.00 0.00 0.00 67 1016.2
20200808235303 88 50 10.0 15.0 0.00 0.00 0.00 67 1016.2
20200808234303 88 57 7.0 16.0 0.00 0.00 0.00 70 1016.4
20200808233303 87 68 9.0 16.0 0.00 0.00 0.00 69 1016.6
20200808231302 87 74 8.0 16.0 0.00 0.00 0.00 69 1016.5
20200808230302 88 74 10.0 15.0 0.00 0.00 0.00 70 1016.6
20200808225303 88 80 9.0 16.0 0.00 0.00 0.00 69 1016.7
20200808224302 88 68 9.0 17.0 0.00 0.00 0.00 68 1016.8
20200808223302 88 61 11.0 17.0 0.00 0.00 0.00 67 1016.8
20200808222302 88 71 12.0 17.0 0.00 0.00 0.00 65 1016.9
20200808221303 89 70 11.0 17.0 0.00 0.00 0.00 66 1016.9
20200808220303 89 73 10.0 17.0 0.00 0.00 0.00 64 1016.9
20200808215303 89 76 11.0 15.0 0.00 0.00 0.00 62 1016.8
20200808214303 89 70 9.0 16.0 0.00 0.00 0.00 62 1016.7
20200808213303 89 67 9.0 15.0 0.00 0.00 0.00 64 1016.6
20200808212303 90 65 9.0 15.0 0.00 0.00 0.00 64 1016.5
20200808211303 89 75 10.0 15.0 0.00 0.00 0.00 64 1016.7
20200808210307 90 64 9.0 14.0 0.00 0.00 0.00 64 1016.7
20200808205303 90 60 7.0 16.0 0.00 0.00 0.00 64 1016.7
20200808204303 90 66 7.0 14.0 0.00 0.00 0.00 64 1016.7
20200808203303 90 61 9.0 16.0 0.00 0.00 0.00 65 1016.7
20200808202303 90 70 10.0 16.0 0.00 0.00 0.00 63 1016.8
20200808201302 89 64 9.0 14.0 0.00 0.00 0.00 65 1016.7
20200808200303 89 73 9.0 15.0 0.00 0.00 0.00 62 1016.9
20200808195303 90 67 8.0 15.0 0.00 0.00 0.00 63 1017.0
20200808194303 89 69 9.0 16.0 0.00 0.00 0.00 63 1017.1
20200808193303 89 71 10.0 16.0 0.00 0.00 0.00 62 1017.2
20200808192304 90 71 8.0 13.0 0.00 0.00 0.00 59 1017.2
20200808191303 90 65 7.0 14.0 0.00 0.00 0.00 60 1017.2
20200808190303 90 76 7.0 13.0 0.00 0.00 0.00 61 1017.3
20200808185303 89 74 8.0 16.0 0.00 0.00 0.00 64 1017.4
20200808184302 90 67 8.0 14.0 0.00 0.00 0.00 58 1017.5
20200808183302 90 52 6.0 13.0 0.00 0.00 0.00 61 1017.6
20200808181302 90 44 7.0 13.0 0.00 0.00 0.00 64 1017.7
20200808180302 90 63 6.0 12.0 0.00 0.00 0.00 63 1017.8
20200808175302 90 37 5.0 12.0 0.00 0.00 0.00 65 1017.9
20200808174302 90 65 6.0 12.0 0.00 0.00 0.00 66 1018.0
20200808172302 89 64 6.0 12.0 0.00 0.00 0.00 66 1018.1
20200808170303 88 72 7.0 13.0 0.00 0.00 0.00 68 1018.2
20200808164302 89 70 6.0 9.0 0.00 0.00 0.00 66 1018.3
20200808161302 88 75 6.0 10.0 0.00 0.00 0.00 71 1018.3
20200808160302 87 59 7.0 15.0 0.00 0.00 0.00 72 1018.3
20200808155303 87 71 5.0 12.0 0.00 0.00 0.00 70 1018.3
20200808154302 87 78 7.0 10.0 0.00 0.00 0.00 70 1018.3
20200808153302 88 74 6.0 9.0 0.00 0.00 0.00 69 1018.3
20200808152302 87 82 6.0 10.0 0.00 0.00 0.00 71 1018.2
20200808151302 87 77 7.0 10.0 0.00 0.00 0.00 70 1018.2
20200808150303 87 70 5.0 9.0 0.00 0.00 0.00 70 1018.2
20200808145302 86 76 6.0 9.0 0.00 0.00 0.00 70 1018.1
20200808144302 86 78 6.0 9.0 0.00 0.00 0.00 71 1018.0
20200808143302 86 65 7.0 9.0 0.00 0.00 0.00 71 1017.8
20200808140302 85 84 6.0 9.0 0.00 0.00 0.00 75 1017.7
20200808135302 85 66 5.0 9.0 0.00 0.00 0.00 74 1017.7
20200808134302 85 77 5.0 8.0 0.00 0.00 0.00 74 1017.7
20200808133302 85 83 5.0 9.0 0.00 0.00 0.00 74 1017.7
20200808132302 84 87 6.0 9.0 0.00 0.00 0.00 74 1017.6
20200808131303 84 94 5.0 9.0 0.00 0.00 0.00 75 1017.5
20200808130303 84 95 5.0 9.0 0.00 0.00 0.00 76 1017.4
20200808124302 84 85 6.0 10.0 0.00 0.00 0.00 77 1017.2
20200808123303 84 88 6.0 12.0 0.00 0.00 0.00 78 1017.2
20200808121303 84 96 5.0 12.0 0.00 0.00 0.00 79 1017.0
20200808120302 83 86 7.0 10.0 0.00 0.00 0.00 80 1016.8
20200808115306 83 84 6.0 12.0 0.00 0.00 0.00 81 1016.8
20200808114302 84 97 5.0 9.0 0.00 0.00 0.00 81 1016.7
20200808113302 84 86 6.0 10.0 0.00 0.00 0.00 81 1016.7
20200808112302 83 82 7.0 9.0 0.00 0.00 0.00 81 1016.6
20200808110304 84 73 7.0 10.0 0.00 0.00 0.00 81 1016.4